Printer-friendly version
Follow the MPC on Twitter Follow the MPC on Facebook The MPC blog
Minor Planet Center

MPEC 2010-E70 : 2010 EB43

The following Minor Planet Electronic Circular may be linked-to from your own Web pages, but must not otherwise be redistributed electronically.

A form allowing access to any MPEC is at the bottom of this page.


Read MPEC 2010-E69 Read MPEC 2010-E71


M.P.E.C. 2010-E70                                Issued 2010 Mar. 15, 02:04 UT

     The Minor Planet Electronic Circulars contain information on unusual
         minor planets and routine data on comets.  They are published
   on behalf of Commission 20 of the International Astronomical Union by the
          Minor Planet Center, Smithsonian Astrophysical Observatory,
                          Cambridge, MA 02138, U.S.A.

             Prepared using the Tamkin Foundation Computer Network

                              MPC@CFA.HARVARD.EDU
       URL http://www.minorplanetcenter.org/iau/mpc.html  ISSN 1523-6714

                                   2010 EB43

Observations:
     K10E43B* C2010 03 12.37998 12 48 54.80 +24 03 54.8          19.2   EE070704
     K10E43B  C2010 03 12.39107 12 48 56.20 +24 05 45.0          19.2   EE070704
     K10E43B  C2010 03 12.40604 12 48 58.04 +24 08 14.3          19.4   EE070704
     K10E43B  C2010 03 12.41718 12 48 59.39 +24 10 05.1          19.2   EE070704
     K10E43B  C2010 03 12.42823 12 49 00.81 +24 11 55.3          19.4   EE070704
     K10E43B  C2010 03 13.32888 12 51 14.43 +26 36 40.3          19.3   EE070704
     K10E43B  C2010 03 13.34002 12 51 15.83 +26 38 25.6          19.8   EE070704
     K10E43B  C2010 03 13.35119 12 51 17.07 +26 40 08.9          19.1   EE070704
     K10E43B  C2010 03 13.36237 12 51 18.41 +26 41 53.3          19.4   EE070704
     K10E43B  C2010 03 13.37354 12 51 19.72 +26 43 36.8          19.5   EE070704
     K10E43B KC2010 03 14.09912 12 53 00.02 +28 32 38.3          19.0 C EE070B33
     K10E43B KC2010 03 14.10369 12 53 00.55 +28 33 18.6          18.9 C EE070B33
     K10E43B KC2010 03 14.10941 12 53 01.29 +28 34 08.3          18.7 C EE070B33
     K10E43B  C2010 03 14.13263 12 53 03.97 +28 37 27.5          18.7 R EE070473
     K10E43B  C2010 03 14.13541 12 53 04.28 +28 37 51.4          18.7 R EE070473
     K10E43B KC2010 03 14.16666 12 53 08.26 +28 42 23.0          18.5 C EE070204
     K10E43B KC2010 03 14.17340 12 53 09.08 +28 43 21.0                 EE070204
     K10E43B KC2010 03 14.17997 12 53 09.89 +28 44 17.8                 EE070204
     K10E43B  C2010 03 14.30990 12 53 31.39 +29 03 25.1          19.6 R EE070H01
     K10E43B  C2010 03 14.32411 12 53 33.03 +29 05 28.3          19.1 R EE070H01
     K10E43B  C2010 03 14.33258 12 53 33.93 +29 06 41.4          19.2 R EE070H01
     K10E43B  C2010 03 14.34129 12 53 34.89 +29 07 57.2          18.9 R EE070H01
     K10E43B  C2010 03 14.34911 12 53 35.75 +29 09 03.7          19.0 R EE070H01
     K10E43B  C2010 03 14.37100 12 53 38.43 +29 12 15.4          19.5 R EE070651
     K10E43B  C2010 03 14.37471 12 53 38.84 +29 12 47.0          19.5 R EE070651
     K10E43B  C2010 03 14.37545 12 53 38.93 +29 12 53.9          19.5 R EE070651
     K10E43B  C2010 03 14.45019 12 53 47.22 +29 23 30.8          19.3 R EE070926
     K10E43B  C2010 03 14.45184 12 53 47.42 +29 23 44.8          19.5 R EE070926
     K10E43B  C2010 03 14.45348 12 53 47.58 +29 23 58.5          19.5 R EE070926
     K10E43B  C2010 03 14.87819 12 54 49.14 +30 23 02.6          19.0 R EE070A24
     K10E43B  C2010 03 14.87955 12 54 49.37 +30 23 14.8          19.0 R EE070A24
     K10E43B  C2010 03 14.88076 12 54 49.46 +30 23 24.9          18.9 R EE070A24
     K10E43B  C2010 03 14.88197 12 54 49.55 +30 23 34.9          19.0 R EE070A24

Observer details:
204 Schiaparelli Observatory.  Observers L. Buzzi, F. Manca, A. Testa.
    Measurer L. Buzzi.  0.38-m f/6.8 reflector + CCD.
473 Remanzacco.  Observers L. Donato, V. Gonano, E. Guido, G. Sostero.  0.45-m
    f/4.4 Newtonian reflector + CCD.
651 Grasslands Observatory, Tucson.  Observer J. E. McGaha.  0.62-m f/5.1
    Newtonian reflector + CCD.
704 Lincoln Laboratory ETS, New Mexico.  Observers M. Blythe, G. Spitz,
    R. Brungard, J. Paige, P. Festler.  1.0-m f/2.15 reflector + CCD.
926 Tenagra II Observatory.  Observers P. R. Holvorcem, M. Schwartz.  Measurer
    P. R. Holvorcem.  0.81-m f/7 Ritchey-Chretien + CCD.
A24 New Millennium Observatory, Mozzate.  Observer E. Cozzi.  0.36-m f/7.6
    Schmidt-Cassegrain + CCD.
B33 Libbiano Observatory, Peccioli.  Observers P. Bacci, R. Emilio.  Measurer
    P. Bacci.  0.5-m f/8 Ritchey-Chretien + CCD.
H01 Magdalena Ridge Observatory, Socorro.  Observers W. H. Ryan, E. V. Ryan.
    Measurer W. H. Ryan.  2.4-m f/8.9 reflector + CCD.

Orbital elements:
2010 EB43                                                Earth MOID = 0.0991 AU
Epoch 2010 Jan. 4.0 TT = JDT 2455200.5                  MPC
M 346.05009              (2000.0)            P               Q
n   0.63134235     Peri.  323.27825     -0.64783521     -0.75482208
a   1.3457347      Node   166.07268     +0.76004667     -0.64954982
e   0.2158302      Incl.   25.26512     +0.05136726     +0.09126152
P   1.56           H   22.1           G   0.15           U   8
Residuals in seconds of arc
100312 704  0.1-  0.2-    100314 B33  0.1-  0.1+    100314 H01  0.6-  1.0-
100312 704  0.3+  0.6-    100314 B33  0.8+  0.0     100314 651  0.2-  0.1-
100312 704  0.1+  0.2-    100314 473  0.2+  0.4+    100314 651  0.2-  0.4-
100312 704  0.4-  0.1-    100314 473  0.1-  0.2+    100314 651  0.0   0.2+
100312 704  0.1+  0.6+    100314 204  0.2-  0.0     100314 926  0.0   0.0
100313 704  0.5-  0.3-    100314 204  0.3-  0.1-    100314 926  0.2+  0.0
100313 704  0.8+  0.9+    100314 204  0.3-  0.0     100314 926  0.1-  0.1-
100313 704  0.1-  0.1+    100314 H01  0.7-  0.3-    100314 A24  0.3+  0.3-
100313 704  0.3+  0.5+    100314 H01  0.0   0.4-    100314 A24  1.2+  0.5+
100313 704  0.4+  0.3+    100314 H01  0.5-  0.6-    100314 A24  0.4+  0.5+
100314 B33  0.0   0.3-    100314 H01  0.5-  0.0     100314 A24  0.3-  0.4+

Ephemeris:
2010 EB43                a,e,i = 1.35, 0.22, 25                  q = 1.0553
Date    TT    R. A. (2000) Decl.     Delta      r     Elong.  Phase     V
2010 03 15    12 55.04   +30 40.0    0.143    1.116   146.4    29.6    19.4
2010 03 16    12 57.17   +32 50.8    0.148    1.119   144.4    31.1    19.5
2010 03 17    12 59.19   +34 51.2    0.154    1.121   142.6    32.7    19.7
2010 03 18    13 01.11   +36 41.8    0.160    1.124   140.8    34.1    19.8
2010 03 19    13 02.92   +38 23.3    0.166    1.126   139.1    35.4    19.9
2010 03 20    13 04.63   +39 56.5    0.172    1.129   137.5    36.6    20.0
2010 03 21    13 06.25   +41 21.8    0.178    1.131   136.0    37.7    20.1
2010 03 22    13 07.78   +42 40.1    0.185    1.134   134.6    38.8    20.3
2010 03 23    13 09.22   +43 51.8    0.191    1.136   133.2    39.7    20.4
2010 03 24    13 10.58   +44 57.4    0.198    1.139   132.0    40.6    20.5
2010 03 25    13 11.85   +45 57.5    0.205    1.142   130.8    41.4    20.6
2010 03 26    13 13.05   +46 52.5    0.212    1.144   129.7    42.1    20.7
2010 03 27    13 14.18   +47 42.8    0.219    1.147   128.6    42.8    20.8
2010 03 28    13 15.24   +48 28.8    0.226    1.150   127.6    43.4    20.8
2010 03 29    13 16.23   +49 10.9    0.233    1.153   126.7    44.0    20.9
2010 03 30    13 17.16   +49 49.3    0.240    1.155   125.8    44.5    21.0
2010 03 31    13 18.02   +50 24.3    0.247    1.158   124.9    45.0    21.1
2010 04 01    13 18.84   +50 56.1    0.254    1.161   124.1    45.4    21.2
2010 04 02    13 19.59   +51 25.1    0.262    1.164   123.3    45.8    21.3
2010 04 03    13 20.30   +51 51.4    0.269    1.167   122.6    46.2    21.3
2010 04 04    13 20.96   +52 15.1    0.276    1.170   121.9    46.5    21.4

Timothy B. Spahr             (C) Copyright 2010 MPC           M.P.E.C. 2010-E70

Read MPEC 2010-E69 Read MPEC 2010-E71


MPEC number:

Enter an MPEC number in one of the following forms:

  • 1997-B01 (the full form)
  • J97B01 (the packed version of the full form)
  • B01 (the abbreviated form)

Valid HTML 4.01!